Regional Weather Roundup
Issued by NWS Charleston, WV

Home | Current Version | Previous Version | Graphics & Text | Print | Product List | Glossary On
Versions: 1 2 3 4 5 6 7 8 9 10 11 12 13 14 15 16 17 18 19 20 21 22 23 24 25 26 27 28 29 30 31 32 33 34 35 36 37 38 39 40 41 42 43 44 45 46 47 48 49 50
000
ASUS41 KRLX 270410
RWRRLX
West Virginia Regional Weather Roundup
National Weather Service Charleston WV
1100 PM EST MON JAN 26 2015

Note: "fair" indicates few or no clouds below 12,000 feet with no
significant weather and/or obstructions to visibility.

WVZ003-270500-
Northern Panhandle of West Virginia

CITY           SKY/WX    TMP DP  RH WIND       PRES   REMARKS
WHEELING       CLOUDY    20  17  88 NW7       29.86R
$$

WVZ009-270500-
Northwest West Virginia

CITY           SKY/WX    TMP DP  RH WIND       PRES   REMARKS
PARKERSBURG    CLOUDY    23  18  81 W8        29.94R
$$

WVZ006-270500-
Western West Virginia

CITY           SKY/WX    TMP DP  RH WIND       PRES   REMARKS
HUNTINGTON     CLOUDY    24  20  84 N5        29.93S
$$

WVZ015-270500-
West Central West Virginia

CITY           SKY/WX    TMP DP  RH WIND       PRES   REMARKS
CHARLESTON     FLURRIES  26  20  77 VRB7      29.91R
$$

WVZ022-031-270500-
North Central West Virginia

CITY           SKY/WX    TMP DP  RH WIND       PRES   REMARKS
CLARKSBURG     MIX PCPN  25  22  88 W8        29.85R
MORGANTOWN     CLOUDY    25  19  78 CALM      29.84R
$$

WVZ025-035-042-045-270500-
Southern West Virginia

CITY           SKY/WX    TMP DP  RH WIND       PRES   REMARKS
BECKLEY        CLOUDY    22  18  85 NW12      29.79S
LOGAN          CLOUDY    25  19  80 NW3       29.87S
BLUEFIELD      LGT SNOW  22  19  89 NW7G18    29.77S FOG
LEWISBURG      CLOUDY    25  23  90 W5        29.77S
$$

WVZ047-270500-
Northern Mountains of West Virginia

CITY           SKY/WX    TMP DP  RH WIND       PRES   REMARKS
ELKINS         LGT SNOW  23  23 100 W7        29.79S FOG
$$

WVZ052-270500-
Eastern Panhandle of West Virginia

CITY           SKY/WX    TMP DP  RH WIND       PRES   REMARKS
MARTINSBURG    CLOUDY    27  22  81 NW6       29.79S
PETERSBURG     LGT SNOW  29  29 100 CALM      29.79R
$$


USA.gov is the U.S. government's official web portal to all federal, state and local government web resources and services.